Location: Newark
(37.8333°N, 119.5000°W)
Time: 21:41:16
(UTC+00:00)

Tiros 1 despin weight - Pass Details

Date: 26 August 2019
Orbit: 593 x 643 km, 48.2° (Epoch: 22 October)

Event Time Altitude Azimuth Distance (km) Brightness Sun altitude
Rises 06:04:24 0° 243° (WSW) 2,817 - -34.6°
Reaches altitude 10° 06:06:42 10° 246° (WSW) 1,920 - -34.9°
Maximum altitude 06:11:04 67° 329° (NNW) 650 - -35.4°
Drops below altitude 10° 06:15:30 10° 52° (NE) 1,946 - -35.8°
Sets 06:17:50 0° 56° (NE) 2,859 - -36.1°
